ARIANE 42P DEB, 47107

Orbit data source: Space-Track

ARIANE 42P DEB, 47107 is space debris in LEO originally from a launch on Mon, 10 Aug 1992 UTC launched from the French Guiana (FRGUI). Debris objects in space refer to the collection of defunct objects orbiting the Earth. Examples of debris include non-operational satellites, rocket bodies, and fragments generated from explosions, collisions, or faulty payload assembly.

Loading next visibility...
ARIANE 42P DEB details
Identifier
47107, 1992-052N
Orbit
LEO
Last TLE update1 day ago
Origin
Flag of FRArianespace (FR)
ManufacturerArianeGroup
MissionSpacecraft
Bus & MotorUnknown
MassUnknown
Launch date (UTC)
1992-08-10 (32 years ago)
Launch vehicleUnknown
Launch site
French Guiana (FRGUI)
Object type
Payload
Rocket body
Debris
Shape & HBRUnknown
Radar Cross SectionSmall (<0.1 m²)

Expand to show TLE details & history

TLE from 1 day ago
0 ARIANE 42P DEB
1 47107U 92052N   24360.05945937  .00001830  00000-0  79170-2 0  9992
2 47107  66.0625 326.0349 0069464 191.0496 168.8999 12.82763679237623
Epoch: 2024-12-25T01:25Z
Definitive object data (Epoch: 2024-12-25T01:25:37.289Z)
Latitude0.00003°
Longitude-149.4291°
Altitude1,384.855 km
Speed7.143 km/s
True Right ascension21h 44m 08s
True Declination0° 00' 00"
Sunlit
Object was in daylight at TLE epoch
Visualization TLE readout
Latitude16.07413°
Longitude20.42627°
Altitude1,284.288 km
Speed7.238 km/s
Apparent Right ascension08h 19m 51s
Apparent Declination-37° 42' 57"
Sunlit
Object is in full shadow
Visualization observer readout
Local Sidereal Time09:26:04
Azimuth193.27° SSW
Elevation10.897°
Doppler factor1
Orbital elements
Apogee altitude1,382.474 km
Perigee altitude1,275.401 km
Semi-major axis7,707.074 km
Eccentricity0.0069464
Inclination66.0625°
RAAN326.0349°
Arg. of periapsis191.0496°
True anomaly169.05185°
Mean anomaly168.8999°
Eccentric anomaly168.97601°
Mean motion3.20781 °/min
BSTAR0.007917
Orbital period112.23 mins
Loading maneuver chart data...
Loading historical data...
Loading historical data...
Loading historical data...
Loading historical data...
Loading historical data...
Loading historical data...
Loading historical data...

ARIANE 42P DEB Visibility forecast

Observer location: undefined°, undefined

Span
Click to sort rows by Start time (UTC) header in descending order
Start Az.
Max El. time (UTC)
Max El. Az.
Max El.
End time (UTC)
End Az.
14 mins2024-12-26 22:25:57.149Z173.516° S2024-12-26 22:32:57.149Z104.128° ESE33.953°2024-12-26 22:39:57.149Z43.619° NE
14 mins2024-12-27 00:21:57.149Z241.179° WSW2024-12-27 00:27:57.149Z301.459° NW36.205°2024-12-27 00:35:57.149Z20.877° NNE
6 mins2024-12-27 02:23:57.149Z314.403° NW2024-12-27 02:25:57.149Z329.969° NNW14.299°2024-12-27 02:29:57.149Z0.923° NNE
10 mins2024-12-27 06:21:57.149Z356.559° N2024-12-27 06:26:57.149Z40.993° NE20.4°2024-12-27 06:31:57.149Z82.204° E
14 mins2024-12-27 08:16:57.149Z332.399° NNW2024-12-27 08:23:57.149Z96.939° ESE44.414°2024-12-27 08:30:57.149Z146.858° SSE
|